Location: Tucson
(32.2217°N, 110.9265°W)
Time: 03:48:47
(UTC-07:00)

N. Korean satellite - Visible Passes

Search period start: 28 September 2021 00:00
Search period end: 08 October 2021 00:00
Orbit: 449 x 498 km, 97.3° (Epoch: 27 September)

Date Brightness Start Highest point End Pass type
(mag) Time Alt. Az. Time Alt. Az. Time Alt. Az.
28 Sep 10.0 04:38:27 10° ENE 04:39:58 12° E 04:41:31 10° ESE visible
29 Sep 6.5 05:41:53 10° N 05:45:28 74° WNW 05:49:05 10° SSW visible
30 Sep 8.0 05:14:14 10° NNE 05:17:39 40° E 05:21:05 10° S visible
01 Oct 9.7 04:47:19 10° NE 04:49:43 17° E 04:52:08 10° SE visible
02 Oct 6.7 05:51:36 10° N 05:55:07 51° WNW 05:58:39 10° SSW visible
03 Oct 7.3 05:23:42 10° NNE 05:27:17 58° E 05:30:52 10° S visible
04 Oct 9.2 04:56:26 10° NE 04:59:21 23° E 05:02:17 10° SSE visible
06 Oct 6.7 05:33:09 10° NNE 05:36:48 82° E 05:40:26 10° S visible
07 Oct 8.6 05:05:36 10° NE 05:08:52 31° E 05:12:07 10° SSE visible
